User: anonymous
Location: Unspecified
(0.0000°N, 0.0000°E)
Time: 16:03:11
(UTC+02:00)
Language:

Ariane 42L R/B - Orbit

View from above orbital plane
View from above orbital plane
View from above satellite
View from above satellite

Ground track
Ground track

The orbit data is extracted from the following two-line orbital elements,

1 26299U 00020B   14240.94463799  .00007500  00000-0  23045-2 0   373
2 26299 007.4837 089.4274 6059150 324.1427 007.3574 03.93077825177692
Epoch (UTC): 28 August 2014 22:40:16
Eccentricity: 0.6059150
inclination: 7.4837°
perigee height: 305 km
apogee height: 20857 km
right ascension of ascending node: 89.4274°
argument of perigee: 324.1427°
revolutions per day: 3.93077825
mean anomaly at epoch: 7.3574°
orbit number at epoch: 17769

The dashed part of the orbit path shows where the satellite is in the earth's shadow,  

DLR